Regional Weather Roundup
Issued by NWS

Home | Current Version | Previous Version | Graphics & Text | Print | Product List | Glossary On
Versions: 1 2 3 4 5 6 7 8 9 10 11 12 13 14 15 16 17 18 19 20 21 22 23 24 25 26 27 28 29 30 31 32 33 34 35 36 37 38 39 40 41 42 43 44 45 46 47 48 49 50
000
ASUS43 KMKX 060600
RWRWI

WISCONSIN REGIONAL WEATHER ROUNDUP
NATIONAL WEATHER SERVICE MILWAUKEE/SULLIVAN WI
100 AM CDT MON JUL 06 2015

NOTE: "FAIR" INDICATES FEW OR NO CLOUDS BELOW 12,000 FEET WITH NO
SIGNIFICANT WEATHER AND/OR OBSTRUCTIONS TO VISIBILITY.

WIZ001-002-006>008-014>016-023>028-060700-
NORTHWEST WISCONSIN

CITY           SKY/WX    TMP DP  RH WIND       PRES   REMARKS
SUPERIOR ARPT  CLOUDY    67  66  99 SW5       29.85R
ASHLAND        TSTM      67  67 100 SW9       29.87R VSB 1
6HR MIN TEMP:  67; 6HR MAX TEMP:  79; 6HR PCP:  0.29;

HAYWARD        TSTM      70  68  93 N8        29.90R FOG
6HR MIN TEMP:  70; 6HR MAX TEMP:  81; 6HR PCP:  0.07;

SIREN          CLOUDY    76  64  68 N21G31    29.89R
CUMBERLAND     TSTM      70  64  83 S5        29.89R
RICE LAKE      CLOUDY    72  65  79 SE3       29.90R THUNDER
CHETEK         CLOUDY    72  67  84 CALM      29.90R
LADYSMITH      CLOUDY    71  65  81 S6        29.92R
EAU CLAIRE     NOT AVBL
MENOMONIE      CLOUDY    74  66  76 S5        29.88R
NEW RICHMOND   CLOUDY    73  65  75 CALM      29.87S
OSCEOLA        RAIN      74  68  81 S6        29.89R
$$

WIZ003>005-009-010-017-018-060700-
NORTH CENTRAL WISCONSIN

CITY           SKY/WX    TMP DP  RH WIND       PRES   REMARKS
MANITOWISH WTR CLOUDY    69  64  85 S10       29.90S
ARBOR VITAE    CLOUDY    72  66  81 S9        29.91S
WOODRUFF       CLOUDY    72  66  81 S9        29.91S
RHINELANDER    MOCLDY    69  62  78 SW9       29.94R
6HR MIN TEMP:  69; 6HR MAX TEMP:  79;

EAGLE RIVER    CLOUDY    68  61  77 S3        29.92R
LAND O LAKES   CLOUDY    70  62  76 S5        29.91F
PHILLIPS       CLOUDY    69  64  83 S6        29.91R
TOMAHAWK       MOCLDY    66  62  89 CALM      29.93R
MEDFORD        CLOUDY    68  64  85 S8        29.93R
MERRILL        MOCLDY    69  65  86 S5        29.94R
$$

WIZ029-030-035-036-043>047-060700-
CENTRAL WISCONSIN

CITY           SKY/WX    TMP DP  RH WIND       PRES   REMARKS
WAUSAU         PTCLDY    70  64  81 S8        29.93R
6HR MIN TEMP:  70; 6HR MAX TEMP:  80;

MOSINEE        PTCLDY    66  64  94 S3        29.95R
MARSHFIELD     PTCLDY    70  62  76 S9        29.94R
6HR MIN TEMP:  68; 6HR MAX TEMP:  80;

STEVENS POINT  CLEAR     68  63  83 S9        29.95R
WAUPACA        CLEAR     68  66  91 S3        29.94R
WAUTOMA        NOT AVBL
WISC RAPIDS    CLEAR     69  62  78 S6        29.96R
6HR MIN TEMP:  69; 6HR MAX TEMP:  80;

CAMP DOUGLAS   NOT AVBL
$$

WIZ011>013-019>022-031-037>040-048>050-060700-
NORTHEAST WISCONSIN

CITY           SKY/WX    TMP DP  RH WIND       PRES   REMARKS
ANTIGO         PTCLDY    64  62  94 S6        29.95R
SHAWANO        PTCLDY    70  64  79 S3        29.94R
OCONTO         CLEAR     68  65  90 S6        29.92S
STURGEON BAY   PTCLDY    64  57  77 S9        29.97R
6HR MIN TEMP:  64; 6HR MAX TEMP:  72;

GREEN BAY      CLEAR     67  62  84 S6        29.95R HAZE
6HR MIN TEMP:  67; 6HR MAX TEMP:  81;

MANITOWOC      NOT AVBL
APPLETON       CLEAR     68  61  77 S8        29.95R
CLINTONVILLE   CLEAR     70  63  78 S5        29.93R
OSHKOSH        CLEAR     66  62  87 S8        29.95R
6HR MIN TEMP:  64; 6HR MAX TEMP:  79;

$$

WIZ032>034-041-042-053>061-060700-
SOUTHWEST WISCONSIN

CITY           SKY/WX    TMP DP  RH WIND       PRES   REMARKS
LA CROSSE      CLEAR     75  66  73 S14G24    29.90R
6HR MIN TEMP:  74; 6HR MAX TEMP:  82;

SPARTA         CLEAR     72  63  73 S7        29.92R
VIROQUA        CLEAR     69  65  87 S8        29.94S
BOSCOBEL       CLEAR     73  65  75 SW5       29.93S HAZE
6HR MIN TEMP:  73; 6HR MAX TEMP:  81;

PRAIRIE DU CHI CLEAR     73  64  73 SE6       29.91F
PLATTEVILLE    CLEAR     68  65  90 S6        29.96R
$$

WIZ056-057-062-063-064-067-068-060700-
SOUTH CENTRAL WISCONSIN

CITY           SKY/WX    TMP DP  RH WIND       PRES   REMARKS
REEDSBURG      MOCLDY    69  64  84 S5        29.93F
BARABOO/DELLS  CLEAR     68  62  80 SW6       29.95R
LONE ROCK      NOT AVBL
MINERAL POINT  CLEAR     70  64  83 S7        29.96S
MADISON        CLEAR     72  63  73 S9        29.95S
6HR MIN TEMP:  71; 6HR MAX TEMP:  80;

MIDDLETON      CLEAR     71  63  75 S6        29.96F
WATERTOWN      CLEAR     66  66 100 SE6       29.95F
MONROE         CLEAR     68  63  83 S9        29.97F
JANESVILLE     CLEAR     68  63  83 S5        29.97R
$$

WIZ051-052-058>065-066-070>072-060700-
SOUTHEAST WISCONSIN

CITY           SKY/WX    TMP DP  RH WIND       PRES   REMARKS
MILWAUKEE      PTCLDY    68  59  73 S6        29.98S
6HR MIN TEMP:  67; 6HR MAX TEMP:  76;

WAUKESHA       CLEAR     66  59  77 SW3       30.00R
MILWAUKEE/TIMM CLEAR     66  57  72 SW3       29.99R
RACINE         CLEAR     68  59  73 S6        29.99F
6HR MIN TEMP:  68; 6HR MAX TEMP:  74;

BURLINGTON     CLEAR     65  60  83 S6        29.98S
KENOSHA        CLEAR     67  60  78 S6        29.98F
6HR MIN TEMP:  66; 6HR MAX TEMP:  76;

FOND DU LAC    CLEAR     68  62  81 S8        29.95S
6HR MIN TEMP:  67; 6HR MAX TEMP:  80;

SHEBOYGAN      CLEAR     63  59  87 S6        29.96S
6HR MIN TEMP:  63; 6HR MAX TEMP:  73;

WEST BEND      CLEAR     63  59  88 CALM      29.98R
JUNEAU         CLEAR     68  62  83 S10       29.97S
$$

LSZ147-162-060700-
LAKE SUPERIOR

STATION/POSITION TIME  TEMP    WIND        PRES    WAVE
                       AIR SEA DIR/SP/G            HT/PER
                 (UTC) (F)     (DEG/KT/KT) (MB)    (FT/S)
W MID LAKE BUOY  0450   56 39  220/  6/  8 1008.6R   0
DEVILS ISLAND    0500   65     260/ 13/ 15 1009.4R
PORT WING        0500   66     200/  6/ 13 1010.5R
SAXON HARBOR     0540   74     200/  7/ 15 1009.1R
$$

LMZ867-665-643>646-060700-
LAKE MICHIGAN

STATION/POSITION TIME  TEMP    WIND        PRES    WAVE
                       AIR SEA DIR/SP/G            HT/PER
                 (UTC) (F)     (DEG/KT/KT) (MB)    (FT/S)
CHAMBERS ISLAND  0500   70     160/  6/ 13 1013.5R
S GREEN BAY BUOY 0500   71 69  180/ 14/ 19 1014.8
N MID LAKE BUOY  0450   57 50  200/ 12/ 14 1014.0F   2/ 4
NORTHPORT PIER   0500   65     150/  6/  9 1013.5F
SISTER BAY       0544   68     160/ 13/ 16   N/A
ALGOMA LAKESHORE 0411          210/ 11/ 13   N/A
KEWAUNEE LAKESHO 0500   62     180/  7/  8 1013.8R
SHEBOYGAN LAKESH 0500   63     180/ 14/ 15 1014.7F
PORT WASHINGTON  0500   63     200/  3/  7 1015.2F
ATWATER BUOY     0500   64 59  170/ 10/ 10 1016.1F
MILWAUKEE LAKESH 0500   65     170/  6/  7   N/A
KENOSHA   LAKESH 0500   67     180/ 11/ 14 1015.2F
$$

TC  - TEMPERATURE IN CELSIUS
VSB - VISIBILITY IN STATUTE MILES
WCI - WIND CHILL INDEX
HX  - HEAT INDEX




USA.gov is the U.S. government's official web portal to all federal, state and local government web resources and services.